Bay St. Louis, MS Weather Center

Moon Phase Calendar



Online Cameras

 


      

Current Conditions in Waveland
6/23/2021 7:24:17 AM

75°F
Feels Like 77
Mist
Humidity
91%
Pressure
30"
Wind
4.6 mph (NE)
Dew Point
72°F
UV Index
0/10 (Low)
Visibility
1 mi

Hourly Forecast

Date & Time Wed, Jun 23
7:00 AM
Wed, Jun 23
8:00 AM
Wed, Jun 23
9:00 AM
Wed, Jun 23
10:00 AM
Wed, Jun 23
11:00 AM
Wed, Jun 23
12:00 PM
Wed, Jun 23
1:00 PM
Wed, Jun 23
2:00 PM
Wed, Jun 23
3:00 PM
Wed, Jun 23
4:00 PM
Wed, Jun 23
5:00 PM
Wed, Jun 23
6:00 PM
Wed, Jun 23
7:00 PM
Wed, Jun 23
8:00 PM
Wed, Jun 23
9:00 PM
Wed, Jun 23
10:00 PM
Wed, Jun 23
11:00 PM
Thu, Jun 24
12:00 AM
Thu, Jun 24
1:00 AM
Thu, Jun 24
2:00 AM
Thu, Jun 24
3:00 AM
Thu, Jun 24
4:00 AM
Thu, Jun 24
5:00 AM
Thu, Jun 24
6:00 AM
Thu, Jun 24
7:00 AM
Thu, Jun 24
8:00 AM
Thu, Jun 24
9:00 AM
Thu, Jun 24
10:00 AM
Thu, Jun 24
11:00 AM
Thu, Jun 24
12:00 PM
Thu, Jun 24
1:00 PM
Thu, Jun 24
2:00 PM
Thu, Jun 24
3:00 PM
Thu, Jun 24
4:00 PM
Thu, Jun 24
5:00 PM
Thu, Jun 24
6:00 PM
Thu, Jun 24
7:00 PM
Thu, Jun 24
8:00 PM
Thu, Jun 24
9:00 PM
Thu, Jun 24
10:00 PM
Thu, Jun 24
11:00 PM
Fri, Jun 25
12:00 AM
Fri, Jun 25
1:00 AM
Fri, Jun 25
2:00 AM
Fri, Jun 25
3:00 AM
Fri, Jun 25
4:00 AM
Fri, Jun 25
5:00 AM
Fri, Jun 25
6:00 AM
Condition
Clouds

Clouds

Clouds

Clouds

Clouds

Rain

Rain

Rain

Rain

Rain

Rain

Rain

Rain

Rain

Clear

Clear

Clear

Clear

Rain

Clear

Clear

Clear

Clear

Rain

Rain

Rain

Rain

Clear

Clear

Rain

Rain

Rain

Rain

Rain

Rain

Clouds

Clouds

Clouds

Rain

Clouds

Rain

Rain

Clouds

Rain

Clouds

Clouds

Clouds

Clouds
Temperature 75°F75°F76°F79°F82°F83°F84°F84°F85°F85°F84°F83°F81°F79°F79°F78°F78°F78°F77°F77°F77°F76°F76°F76°F77°F79°F81°F83°F85°F85°F85°F85°F85°F85°F85°F84°F82°F79°F78°F78°F78°F77°F77°F77°F77°F76°F76°F76°F
Feels Like 77°F77°F78°F79°F88°F90°F91°F92°F93°F93°F92°F91°F88°F79°F80°F80°F80°F79°F79°F79°F78°F78°F78°F78°F78°F79°F87°F90°F92°F92°F93°F92°F92°F92°F92°F91°F89°F79°F80°F80°F79°F79°F79°F78°F78°F78°F77°F77°F
Cloudiness 90%74%58%44%31%20%20%20%18%16%15%13%11%1%0%0%0%0%0%0%0%1%2%2%3%8%4%3%2%5%7%29%29%28%38%50%56%19%14%37%40%52%60%91%73%59%46%44%
Visibility 6 mi6 mi6 mi6 mi6 mi6 mi6 mi6 mi6 mi6 mi6 mi6 mi6 mi6 mi6 mi6 mi6 mi6 mi6 mi6 mi6 mi6 mi6 mi6 mi6 mi6 mi6 mi6 mi6 mi6 mi6 mi6 mi6 mi6 mi6 mi6 mi6 mi6 mi6 mi6 mi6 mi6 mi6 mi6 mi6 mi6 mi6 mi6 mi
Precipitation 19%22%26%26%24%42%60%68%72%75%75%79%79%31%9%4%2%0%24%20%21%21%24%35%59%85%87%82%82%83%71%59%71%74%71%72%69%29%59%84%88%88%85%31%27%25%25%15%
Humidity 91%92%89%83%76%75%74%73%71%73%78%82%84%88%89%90%91%92%93%93%93%93%93%93%92%89%82%74%68%68%67%67%68%68%69%72%80%86%88%88%88%89%90%90%90%90%91%91%
Dew Point 72°F73°F73°F74°F74°F74°F75°F74°F74°F75°F76°F76°F76°F75°F75°F75°F75°F75°F75°F75°F74°F74°F74°F74°F74°F75°F75°F74°F73°F73°F73°F73°F73°F73°F73°F74°F75°F75°F74°F74°F74°F74°F74°F74°F73°F73°F73°F72°F
Pressure 30"30"30.03"30.03"30.06"30.06"30.03"30.03"30.03"30"30"30"30"30.03"30.03"30.03"30.03"30.03"30.03"30"30"30"30.03"30.06"30.06"30.09"30.09"30.09"30.06"30.06"30.06"30.03"30.03"30.03"30"30"30"30"30.03"30.03"30.03"30.03"30.03"30"30"30.03"30.03"30.03"
Wind Speed 4.8 mph4.8 mph4.2 mph2.9 mph2.5 mph3.9 mph4.2 mph3.8 mph3.3 mph4 mph3.6 mph3.7 mph4.6 mph4.4 mph4.6 mph4.5 mph4.9 mph4.5 mph4.3 mph3.8 mph2.5 mph1.9 mph1.6 mph1.7 mph1 mph0.6 mph2.6 mph2.7 mph4.8 mph5.5 mph5.1 mph5.1 mph5.9 mph6.4 mph6.8 mph5.3 mph6.1 mph5.7 mph4.9 mph4.8 mph6.1 mph6 mph5.4 mph5.4 mph5.4 mph3.1 mph0.7 mph1.6 mph
Wind
Direction
24°
NNE
43°
NE
51°
NE
70°
ENE
137°
SE
172°
S
167°
SSE
164°
SSE
159°
SSE
152°
SSE
142°
SE
147°
SSE
151°
SSE
147°
SSE
153°
SSE
169°
S
193°
SSW
218°
SW
234°
SW
235°
SW
234°
SW
228°
SW
243°
WSW
299°
WNW
314°
NW
133°
SE
154°
SSE
152°
SSE
154°
SSE
146°
SE
140°
SE
136°
SE
128°
SE
140°
SE
151°
SSE
157°
SSE
169°
S
162°
SSE
152°
SSE
158°
SSE
141°
SE
149°
SSE
156°
SSE
151°
SSE
151°
SSE
163°
SSE
106°
ESE
88°
E

Daily Forecast

Date High Low Precip. Humidity
Today
Jun 23

Rain
85 °F
75 °F
79%
75%
Thursday
Jun 24

Rain
85 °F
76 °F
87%
68%
Friday
Jun 25

Rain
84 °F
76 °F
85%
68%
Saturday
Jun 26

Rain
83 °F
75 °F
48%
67%
Sunday
Jun 27

Rain
83 °F
75 °F
73%
70%
Monday
Jun 28

Rain
85 °F
76 °F
61%
64%
Tuesday
Jun 29

Rain
85 °F
76 °F
36%
68%
Wednesday
Jun 30

Rain
85 °F
76 °F
72%
68%
Thursday
Jul 1

Rain
80 °F
75 °F
100%
88%
Friday
Jul 2

Rain
85 °F
74 °F
100%
67%
Saturday
Jul 3

Rain
80 °F
76 °F
100%
84%
Sunday
Jul 4

Rain
85 °F
75 °F
100%
70%
Monday
Jul 5

Rain
86 °F
77 °F
83%
71%
Tuesday
Jul 6

Clouds
84 °F
77 °F
2%
69%
Wednesday
Jul 7

Rain
90 °F
76 °F
28%
57%
Thursday
Jul 8

Clouds
91 °F
78 °F
12%
56%

Temperature 8-14 Day Outlook



Precipitation 8-14 Day Outlook




Quick Links
Bay St. Louis, MS News
Bay St. Louis, MS Photos
Bay St. Louis, MS Videos




About Us
Contact Us
Site Map
Search Site
Advertise With Us
   
BayStLouis.CoastalTown.com
THE BAY ST. LOUIS, MS WEBSITE

Copyright 2021, Coastal Town
Privacy    |    Legal